<?xml version="1.0" encoding="UTF-8"?>
<gpx
version="1.1"
creator="Kashmir3D 9.350 - http://www.kashmir3d.com"
xmlns:xsi="http://www.w3.org/2001/XMLSchema-instance"
xmlns="http://www.topografix.com/GPX/1/1"
xmlns:kashmir3d="http://www.kashmir3d.com/namespace/kashmir3d"
xsi:schemaLocation="http://www.topografix.com/GPX/1/1 http://www.topografix.com/GPX/1/1/gpx.xsd
	http://www.kashmir3d.com/namespace/kashmir3d http://www.kashmir3d.com/namespace/kashmir3d.xsd">
<trk>
 <name>KASHIWARA_TAKAOSAN.KML(柏原高尾山)</name>
 <number>1</number>
 <extensions>
 <kashmir3d:line_color>0000ff</kashmir3d:line_color>
 <kashmir3d:line_size>3</kashmir3d:line_size>
 <kashmir3d:line_style>1</kashmir3d:line_style>
 <kashmir3d:icon>901001</kashmir3d:icon>
 </extensions>
<trkseg>
<trkpt lat="34.588993" lon="135.627119">
 <ele>16.5</ele>
 <time>2020-03-24T15:34:46Z</time>
</trkpt>
<trkpt lat="34.589208" lon="135.627152">
 <ele>16.5</ele>
 <time>2020-03-24T15:34:46Z</time>
</trkpt>
<trkpt lat="34.589105" lon="135.628063">
 <ele>16.1</ele>
 <time>2020-03-24T15:34:46Z</time>
</trkpt>
<trkpt lat="34.589028" lon="135.628611">
 <ele>15.9</ele>
 <time>2020-03-24T15:34:46Z</time>
</trkpt>
<trkpt lat="34.589010" lon="135.628782">
 <ele>16.1</ele>
 <time>2020-03-24T15:34:47Z</time>
</trkpt>
<trkpt lat="34.589010" lon="135.631186">
 <ele>16.9</ele>
 <time>2020-03-24T15:34:47Z</time>
</trkpt>
<trkpt lat="34.589259" lon="135.631250">
 <ele>17.1</ele>
 <time>2020-03-24T15:34:47Z</time>
</trkpt>
<trkpt lat="34.589628" lon="135.631271">
 <ele>17.3</ele>
 <time>2020-03-24T15:34:47Z</time>
</trkpt>
<trkpt lat="34.589646" lon="135.631379">
 <ele>17.4</ele>
 <time>2020-03-24T15:34:47Z</time>
</trkpt>
<trkpt lat="34.589646" lon="135.632462">
 <ele>19.3</ele>
 <time>2020-03-24T15:34:47Z</time>
</trkpt>
<trkpt lat="34.589680" lon="135.633052">
 <ele>23.1</ele>
 <time>2020-03-24T15:34:47Z</time>
</trkpt>
<trkpt lat="34.589706" lon="135.633385">
 <ele>26.9</ele>
 <time>2020-03-24T15:34:47Z</time>
</trkpt>
<trkpt lat="34.589723" lon="135.633567">
 <ele>30.3</ele>
 <time>2020-03-24T15:34:47Z</time>
</trkpt>
<trkpt lat="34.589697" lon="135.633675">
 <ele>32.2</ele>
 <time>2020-03-24T15:34:48Z</time>
</trkpt>
<trkpt lat="34.589706" lon="135.633803">
 <ele>36.3</ele>
 <time>2020-03-24T15:34:48Z</time>
</trkpt>
<trkpt lat="34.589646" lon="135.633964">
 <ele>41.2</ele>
 <time>2020-03-24T15:34:48Z</time>
</trkpt>
<trkpt lat="34.589483" lon="135.634136">
 <ele>46.3</ele>
 <time>2020-03-24T15:34:48Z</time>
</trkpt>
<trkpt lat="34.589371" lon="135.634243">
 <ele>49.5</ele>
 <time>2020-03-24T15:34:48Z</time>
</trkpt>
<trkpt lat="34.589148" lon="135.634329">
 <ele>54</ele>
 <time>2020-03-24T15:34:48Z</time>
</trkpt>
<trkpt lat="34.588959" lon="135.634404">
 <ele>56.5</ele>
 <time>2020-03-24T15:34:48Z</time>
</trkpt>
<trkpt lat="34.588882" lon="135.634479">
 <ele>60</ele>
 <time>2020-03-24T15:34:48Z</time>
</trkpt>
<trkpt lat="34.588796" lon="135.634597">
 <ele>62.9</ele>
 <time>2020-03-24T15:34:48Z</time>
</trkpt>
<trkpt lat="34.588770" lon="135.634630">
 <ele>62.2</ele>
 <time>2020-03-24T15:34:48Z</time>
</trkpt>
<trkpt lat="34.588762" lon="135.634683">
 <ele>64.3</ele>
 <time>2020-03-24T15:34:49Z</time>
</trkpt>
<trkpt lat="34.588804" lon="135.634737">
 <ele>66</ele>
 <time>2020-03-24T15:34:49Z</time>
</trkpt>
<trkpt lat="34.588865" lon="135.634769">
 <ele>69</ele>
 <time>2020-03-24T15:34:49Z</time>
</trkpt>
<trkpt lat="34.588950" lon="135.634790">
 <ele>70.7</ele>
 <time>2020-03-24T15:34:49Z</time>
</trkpt>
<trkpt lat="34.589010" lon="135.634876">
 <ele>75.7</ele>
 <time>2020-03-24T15:34:49Z</time>
</trkpt>
<trkpt lat="34.589019" lon="135.634941">
 <ele>78.4</ele>
 <time>2020-03-24T15:34:49Z</time>
</trkpt>
<trkpt lat="34.589002" lon="135.635005">
 <ele>79.9</ele>
 <time>2020-03-24T15:34:49Z</time>
</trkpt>
<trkpt lat="34.588959" lon="135.635123">
 <ele>83.9</ele>
 <time>2020-03-24T15:34:49Z</time>
</trkpt>
<trkpt lat="34.588847" lon="135.635187">
 <ele>84.7</ele>
 <time>2020-03-24T15:34:49Z</time>
</trkpt>
<trkpt lat="34.588641" lon="135.635284">
 <ele>92.9</ele>
 <time>2020-03-24T15:34:49Z</time>
</trkpt>
<trkpt lat="34.588650" lon="135.635370">
 <ele>96.1</ele>
 <time>2020-03-24T15:34:50Z</time>
</trkpt>
<trkpt lat="34.588727" lon="135.635413">
 <ele>96.7</ele>
 <time>2020-03-24T15:34:50Z</time>
</trkpt>
<trkpt lat="34.588701" lon="135.635456">
 <ele>98.6</ele>
 <time>2020-03-24T15:34:50Z</time>
</trkpt>
<trkpt lat="34.588676" lon="135.635509">
 <ele>100.8</ele>
 <time>2020-03-24T15:34:50Z</time>
</trkpt>
<trkpt lat="34.588659" lon="135.635617">
 <ele>103</ele>
 <time>2020-03-24T15:34:50Z</time>
</trkpt>
<trkpt lat="34.588659" lon="135.635692">
 <ele>104.1</ele>
 <time>2020-03-24T15:34:50Z</time>
</trkpt>
<trkpt lat="34.588710" lon="135.635735">
 <ele>107.3</ele>
 <time>2020-03-24T15:34:50Z</time>
</trkpt>
<trkpt lat="34.588762" lon="135.635735">
 <ele>109</ele>
 <time>2020-03-24T15:34:50Z</time>
</trkpt>
<trkpt lat="34.588830" lon="135.635638">
 <ele>110.2</ele>
 <time>2020-03-24T15:34:50Z</time>
</trkpt>
<trkpt lat="34.588882" lon="135.635724">
 <ele>114.9</ele>
 <time>2020-03-24T15:34:51Z</time>
</trkpt>
<trkpt lat="34.588950" lon="135.635831">
 <ele>116.8</ele>
 <time>2020-03-24T15:34:51Z</time>
</trkpt>
<trkpt lat="34.589002" lon="135.635906">
 <ele>120.4</ele>
 <time>2020-03-24T15:34:51Z</time>
</trkpt>
<trkpt lat="34.589019" lon="135.635981">
 <ele>121.7</ele>
 <time>2020-03-24T15:34:51Z</time>
</trkpt>
<trkpt lat="34.589028" lon="135.636067">
 <ele>124.1</ele>
 <time>2020-03-24T15:34:51Z</time>
</trkpt>
<trkpt lat="34.589088" lon="135.636121">
 <ele>125.8</ele>
 <time>2020-03-24T15:34:51Z</time>
</trkpt>
<trkpt lat="34.589156" lon="135.636121">
 <ele>128.8</ele>
 <time>2020-03-24T15:34:51Z</time>
</trkpt>
<trkpt lat="34.589234" lon="135.636067">
 <ele>130.6</ele>
 <time>2020-03-24T15:34:51Z</time>
</trkpt>
<trkpt lat="34.589242" lon="135.636164">
 <ele>134.9</ele>
 <time>2020-03-24T15:34:51Z</time>
</trkpt>
<trkpt lat="34.589294" lon="135.636314">
 <ele>135</ele>
 <time>2020-03-24T15:34:51Z</time>
</trkpt>
<trkpt lat="34.589371" lon="135.636453">
 <ele>136.4</ele>
 <time>2020-03-24T15:34:52Z</time>
</trkpt>
<trkpt lat="34.589414" lon="135.636561">
 <ele>140.7</ele>
 <time>2020-03-24T15:34:52Z</time>
</trkpt>
<trkpt lat="34.589457" lon="135.636689">
 <ele>142.4</ele>
 <time>2020-03-24T15:34:52Z</time>
</trkpt>
<trkpt lat="34.589603" lon="135.636765">
 <ele>147.3</ele>
 <time>2020-03-24T15:34:52Z</time>
</trkpt>
<trkpt lat="34.589689" lon="135.636807">
 <ele>149.3</ele>
 <time>2020-03-24T15:34:52Z</time>
</trkpt>
<trkpt lat="34.589749" lon="135.636829">
 <ele>152.1</ele>
 <time>2020-03-24T15:34:52Z</time>
</trkpt>
<trkpt lat="34.589774" lon="135.636872">
 <ele>154</ele>
 <time>2020-03-24T15:34:52Z</time>
</trkpt>
<trkpt lat="34.589774" lon="135.636936">
 <ele>155</ele>
 <time>2020-03-24T15:34:52Z</time>
</trkpt>
<trkpt lat="34.589757" lon="135.637001">
 <ele>155.4</ele>
 <time>2020-03-24T15:34:52Z</time>
</trkpt>
<trkpt lat="34.589740" lon="135.637044">
 <ele>155.3</ele>
 <time>2020-03-24T15:34:53Z</time>
</trkpt>
<trkpt lat="34.589749" lon="135.637119">
 <ele>155</ele>
 <time>2020-03-24T15:34:53Z</time>
</trkpt>
<trkpt lat="34.589783" lon="135.637301">
 <ele>155.9</ele>
 <time>2020-03-24T15:34:53Z</time>
</trkpt>
<trkpt lat="34.589834" lon="135.637440">
 <ele>157.7</ele>
 <time>2020-03-24T15:34:53Z</time>
</trkpt>
<trkpt lat="34.589860" lon="135.637537">
 <ele>159.9</ele>
 <time>2020-03-24T15:34:53Z</time>
</trkpt>
<trkpt lat="34.589929" lon="135.637655">
 <ele>164.8</ele>
 <time>2020-03-24T15:34:53Z</time>
</trkpt>
<trkpt lat="34.589937" lon="135.637730">
 <ele>166.3</ele>
 <time>2020-03-24T15:34:53Z</time>
</trkpt>
<trkpt lat="34.589895" lon="135.637805">
 <ele>166.1</ele>
 <time>2020-03-24T15:34:54Z</time>
</trkpt>
<trkpt lat="34.589877" lon="135.637902">
 <ele>167.5</ele>
 <time>2020-03-24T15:34:54Z</time>
</trkpt>
<trkpt lat="34.589817" lon="135.638138">
 <ele>171.9</ele>
 <time>2020-03-24T15:34:54Z</time>
</trkpt>
<trkpt lat="34.589740" lon="135.638267">
 <ele>176.1</ele>
 <time>2020-03-24T15:34:54Z</time>
</trkpt>
<trkpt lat="34.589671" lon="135.638385">
 <ele>181</ele>
 <time>2020-03-24T15:34:54Z</time>
</trkpt>
<trkpt lat="34.589628" lon="135.638470">
 <ele>184.2</ele>
 <time>2020-03-24T15:34:54Z</time>
</trkpt>
<trkpt lat="34.589577" lon="135.638535">
 <ele>188</ele>
 <time>2020-03-24T15:34:54Z</time>
</trkpt>
<trkpt lat="34.589474" lon="135.638578">
 <ele>193.6</ele>
 <time>2020-03-24T15:34:54Z</time>
</trkpt>
<trkpt lat="34.589371" lon="135.638642">
 <ele>199.9</ele>
 <time>2020-03-24T15:34:55Z</time>
</trkpt>
<trkpt lat="34.589337" lon="135.638685">
 <ele>197.8</ele>
 <time>2020-03-24T15:34:55Z</time>
</trkpt>
<trkpt lat="34.589345" lon="135.638760">
 <ele>198.2</ele>
 <time>2020-03-24T15:34:55Z</time>
</trkpt>
<trkpt lat="34.589362" lon="135.638867">
 <ele>197.2</ele>
 <time>2020-03-24T15:34:55Z</time>
</trkpt>
<trkpt lat="34.589354" lon="135.639071">
 <ele>196</ele>
 <time>2020-03-24T15:34:55Z</time>
</trkpt>
<trkpt lat="34.589397" lon="135.639232">
 <ele>196.7</ele>
 <time>2020-03-24T15:34:55Z</time>
</trkpt>
<trkpt lat="34.589465" lon="135.639361">
 <ele>196.4</ele>
 <time>2020-03-24T15:34:55Z</time>
</trkpt>
<trkpt lat="34.589577" lon="135.639447">
 <ele>200.3</ele>
 <time>2020-03-24T15:34:55Z</time>
</trkpt>
<trkpt lat="34.589628" lon="135.639522">
 <ele>202.1</ele>
 <time>2020-03-24T15:34:56Z</time>
</trkpt>
<trkpt lat="34.589680" lon="135.639661">
 <ele>202.1</ele>
 <time>2020-03-24T15:34:56Z</time>
</trkpt>
<trkpt lat="34.589723" lon="135.639736">
 <ele>202.3</ele>
 <time>2020-03-24T15:34:56Z</time>
</trkpt>
<trkpt lat="34.589766" lon="135.639812">
 <ele>202.6</ele>
 <time>2020-03-24T15:34:56Z</time>
</trkpt>
<trkpt lat="34.589834" lon="135.639876">
 <ele>202.6</ele>
 <time>2020-03-24T15:34:56Z</time>
</trkpt>
<trkpt lat="34.589929" lon="135.639940">
 <ele>203.8</ele>
 <time>2020-03-24T15:34:56Z</time>
</trkpt>
<trkpt lat="34.589998" lon="135.639962">
 <ele>205.2</ele>
 <time>2020-03-24T15:34:56Z</time>
</trkpt>
<trkpt lat="34.590075" lon="135.639994">
 <ele>206.1</ele>
 <time>2020-03-24T15:34:56Z</time>
</trkpt>
<trkpt lat="34.590161" lon="135.639994">
 <ele>209.1</ele>
 <time>2020-03-24T15:34:57Z</time>
</trkpt>
<trkpt lat="34.590221" lon="135.639994">
 <ele>210.4</ele>
 <time>2020-03-24T15:34:57Z</time>
</trkpt>
<trkpt lat="34.590341" lon="135.640080">
 <ele>212.8</ele>
 <time>2020-03-24T15:34:57Z</time>
</trkpt>
<trkpt lat="34.590401" lon="135.640101">
 <ele>213.6</ele>
 <time>2020-03-24T15:34:57Z</time>
</trkpt>
<trkpt lat="34.590452" lon="135.640015">
 <ele>214.9</ele>
 <time>2020-03-24T15:34:57Z</time>
</trkpt>
<trkpt lat="34.590530" lon="135.639930">
 <ele>216.3</ele>
 <time>2020-03-24T15:34:57Z</time>
</trkpt>
<trkpt lat="34.590658" lon="135.639908">
 <ele>218</ele>
 <time>2020-03-24T15:34:57Z</time>
</trkpt>
<trkpt lat="34.590770" lon="135.639940">
 <ele>219.2</ele>
 <time>2020-03-24T15:34:58Z</time>
</trkpt>
<trkpt lat="34.590856" lon="135.640015">
 <ele>220.7</ele>
 <time>2020-03-24T15:34:58Z</time>
</trkpt>
<trkpt lat="34.590967" lon="135.640091">
 <ele>221.8</ele>
 <time>2020-03-24T15:34:58Z</time>
</trkpt>
<trkpt lat="34.591062" lon="135.640219">
 <ele>223.3</ele>
 <time>2020-03-24T15:34:58Z</time>
</trkpt>
<trkpt lat="34.591173" lon="135.640380">
 <ele>224.8</ele>
 <time>2020-03-24T15:34:58Z</time>
</trkpt>
<trkpt lat="34.591251" lon="135.640466">
 <ele>227</ele>
 <time>2020-03-24T15:34:58Z</time>
</trkpt>
<trkpt lat="34.591319" lon="135.640434">
 <ele>230.3</ele>
 <time>2020-03-24T15:34:58Z</time>
</trkpt>
<trkpt lat="34.591431" lon="135.640434">
 <ele>235.5</ele>
 <time>2020-03-24T15:34:58Z</time>
</trkpt>
<trkpt lat="34.591500" lon="135.640402">
 <ele>236.5</ele>
 <time>2020-03-24T15:34:59Z</time>
</trkpt>
<trkpt lat="34.591525" lon="135.640455">
 <ele>238.6</ele>
 <time>2020-03-24T15:34:59Z</time>
</trkpt>
<trkpt lat="34.591594" lon="135.640584">
 <ele>246.3</ele>
 <time>2020-03-24T15:34:59Z</time>
</trkpt>
<trkpt lat="34.591645" lon="135.640616">
 <ele>252.2</ele>
 <time>2020-03-24T15:34:59Z</time>
</trkpt>
<trkpt lat="34.591740" lon="135.640734">
 <ele>259.6</ele>
 <time>2020-03-24T15:34:59Z</time>
</trkpt>
<trkpt lat="34.591826" lon="135.640788">
 <ele>267.3</ele>
 <time>2020-03-24T15:34:59Z</time>
</trkpt>
<trkpt lat="34.591920" lon="135.640863">
 <ele>272.6</ele>
 <time>2020-03-24T15:34:59Z</time>
</trkpt>
<trkpt lat="34.592006" lon="135.640884">
 <ele>274.1</ele>
 <time>2020-03-24T15:34:59Z</time>
</trkpt>
<trkpt lat="34.592064" lon="135.640728">
 <ele>276.6</ele>
 <time>2020-03-24T15:35:00Z</time>
</trkpt>
<trkpt lat="34.592006" lon="135.640884">
 <ele>274.1</ele>
 <time>2020-03-24T15:35:00Z</time>
</trkpt>
<trkpt lat="34.591920" lon="135.640863">
 <ele>272.6</ele>
 <time>2020-03-24T15:35:00Z</time>
</trkpt>
<trkpt lat="34.591826" lon="135.640788">
 <ele>267.3</ele>
 <time>2020-03-24T15:35:00Z</time>
</trkpt>
<trkpt lat="34.591740" lon="135.640734">
 <ele>259.6</ele>
 <time>2020-03-24T15:35:00Z</time>
</trkpt>
<trkpt lat="34.591645" lon="135.640616">
 <ele>252.2</ele>
 <time>2020-03-24T15:35:00Z</time>
</trkpt>
<trkpt lat="34.591594" lon="135.640584">
 <ele>246.3</ele>
 <time>2020-03-24T15:35:00Z</time>
</trkpt>
<trkpt lat="34.591525" lon="135.640455">
 <ele>238.6</ele>
 <time>2020-03-24T15:35:00Z</time>
</trkpt>
<trkpt lat="34.591500" lon="135.640402">
 <ele>236.5</ele>
 <time>2020-03-24T15:35:01Z</time>
</trkpt>
<trkpt lat="34.591431" lon="135.640434">
 <ele>235.5</ele>
 <time>2020-03-24T15:35:01Z</time>
</trkpt>
<trkpt lat="34.591319" lon="135.640434">
 <ele>230.3</ele>
 <time>2020-03-24T15:35:01Z</time>
</trkpt>
<trkpt lat="34.591251" lon="135.640466">
 <ele>227</ele>
 <time>2020-03-24T15:35:01Z</time>
</trkpt>
<trkpt lat="34.591173" lon="135.640380">
 <ele>224.8</ele>
 <time>2020-03-24T15:35:01Z</time>
</trkpt>
<trkpt lat="34.591062" lon="135.640219">
 <ele>223.3</ele>
 <time>2020-03-24T15:35:01Z</time>
</trkpt>
<trkpt lat="34.590967" lon="135.640091">
 <ele>221.8</ele>
 <time>2020-03-24T15:35:01Z</time>
</trkpt>
<trkpt lat="34.590856" lon="135.640015">
 <ele>220.7</ele>
 <time>2020-03-24T15:35:02Z</time>
</trkpt>
<trkpt lat="34.590770" lon="135.639940">
 <ele>219.2</ele>
 <time>2020-03-24T15:35:02Z</time>
</trkpt>
<trkpt lat="34.590658" lon="135.639908">
 <ele>218</ele>
 <time>2020-03-24T15:35:02Z</time>
</trkpt>
<trkpt lat="34.590530" lon="135.639930">
 <ele>216.3</ele>
 <time>2020-03-24T15:35:02Z</time>
</trkpt>
<trkpt lat="34.590452" lon="135.640015">
 <ele>214.9</ele>
 <time>2020-03-24T15:35:02Z</time>
</trkpt>
<trkpt lat="34.590401" lon="135.640101">
 <ele>213.6</ele>
 <time>2020-03-24T15:35:02Z</time>
</trkpt>
<trkpt lat="34.590341" lon="135.640080">
 <ele>212.8</ele>
 <time>2020-03-24T15:35:02Z</time>
</trkpt>
<trkpt lat="34.590221" lon="135.639994">
 <ele>210.4</ele>
 <time>2020-03-24T15:35:02Z</time>
</trkpt>
<trkpt lat="34.590161" lon="135.639994">
 <ele>209.1</ele>
 <time>2020-03-24T15:35:03Z</time>
</trkpt>
<trkpt lat="34.590075" lon="135.639994">
 <ele>206.1</ele>
 <time>2020-03-24T15:35:03Z</time>
</trkpt>
<trkpt lat="34.589998" lon="135.639962">
 <ele>205.2</ele>
 <time>2020-03-24T15:35:03Z</time>
</trkpt>
<trkpt lat="34.589929" lon="135.639940">
 <ele>203.8</ele>
 <time>2020-03-24T15:35:03Z</time>
</trkpt>
<trkpt lat="34.589834" lon="135.639876">
 <ele>202.6</ele>
 <time>2020-03-24T15:35:03Z</time>
</trkpt>
<trkpt lat="34.589766" lon="135.639812">
 <ele>202.6</ele>
 <time>2020-03-24T15:35:03Z</time>
</trkpt>
<trkpt lat="34.589723" lon="135.639736">
 <ele>202.3</ele>
 <time>2020-03-24T15:35:03Z</time>
</trkpt>
<trkpt lat="34.589680" lon="135.639661">
 <ele>202.1</ele>
 <time>2020-03-24T15:35:03Z</time>
</trkpt>
<trkpt lat="34.589628" lon="135.639522">
 <ele>202.1</ele>
 <time>2020-03-24T15:35:04Z</time>
</trkpt>
<trkpt lat="34.589577" lon="135.639447">
 <ele>200.3</ele>
 <time>2020-03-24T15:35:04Z</time>
</trkpt>
<trkpt lat="34.589465" lon="135.639361">
 <ele>196.4</ele>
 <time>2020-03-24T15:35:04Z</time>
</trkpt>
<trkpt lat="34.589397" lon="135.639232">
 <ele>196.7</ele>
 <time>2020-03-24T15:35:04Z</time>
</trkpt>
<trkpt lat="34.589354" lon="135.639071">
 <ele>196</ele>
 <time>2020-03-24T15:35:04Z</time>
</trkpt>
<trkpt lat="34.589362" lon="135.638867">
 <ele>197.2</ele>
 <time>2020-03-24T15:35:04Z</time>
</trkpt>
<trkpt lat="34.589345" lon="135.638760">
 <ele>198.2</ele>
 <time>2020-03-24T15:35:04Z</time>
</trkpt>
<trkpt lat="34.589337" lon="135.638685">
 <ele>197.8</ele>
 <time>2020-03-24T15:35:04Z</time>
</trkpt>
<trkpt lat="34.589371" lon="135.638642">
 <ele>199.9</ele>
 <time>2020-03-24T15:35:05Z</time>
</trkpt>
<trkpt lat="34.589474" lon="135.638578">
 <ele>193.6</ele>
 <time>2020-03-24T15:35:05Z</time>
</trkpt>
<trkpt lat="34.589577" lon="135.638535">
 <ele>188</ele>
 <time>2020-03-24T15:35:05Z</time>
</trkpt>
<trkpt lat="34.589628" lon="135.638470">
 <ele>184.2</ele>
 <time>2020-03-24T15:35:05Z</time>
</trkpt>
<trkpt lat="34.589671" lon="135.638385">
 <ele>181</ele>
 <time>2020-03-24T15:35:05Z</time>
</trkpt>
<trkpt lat="34.589740" lon="135.638267">
 <ele>176.1</ele>
 <time>2020-03-24T15:35:05Z</time>
</trkpt>
<trkpt lat="34.589817" lon="135.638138">
 <ele>171.9</ele>
 <time>2020-03-24T15:35:05Z</time>
</trkpt>
<trkpt lat="34.589877" lon="135.637902">
 <ele>167.5</ele>
 <time>2020-03-24T15:35:05Z</time>
</trkpt>
<trkpt lat="34.589895" lon="135.637805">
 <ele>166.1</ele>
 <time>2020-03-24T15:35:06Z</time>
</trkpt>
<trkpt lat="34.589937" lon="135.637730">
 <ele>166.3</ele>
 <time>2020-03-24T15:35:06Z</time>
</trkpt>
<trkpt lat="34.589929" lon="135.637655">
 <ele>164.8</ele>
 <time>2020-03-24T15:35:06Z</time>
</trkpt>
<trkpt lat="34.589860" lon="135.637537">
 <ele>159.9</ele>
 <time>2020-03-24T15:35:06Z</time>
</trkpt>
<trkpt lat="34.589834" lon="135.637440">
 <ele>157.7</ele>
 <time>2020-03-24T15:35:06Z</time>
</trkpt>
<trkpt lat="34.589783" lon="135.637301">
 <ele>155.9</ele>
 <time>2020-03-24T15:35:06Z</time>
</trkpt>
<trkpt lat="34.589749" lon="135.637119">
 <ele>155</ele>
 <time>2020-03-24T15:35:06Z</time>
</trkpt>
<trkpt lat="34.589740" lon="135.637044">
 <ele>155.3</ele>
 <time>2020-03-24T15:35:07Z</time>
</trkpt>
<trkpt lat="34.589757" lon="135.637001">
 <ele>155.4</ele>
 <time>2020-03-24T15:35:07Z</time>
</trkpt>
<trkpt lat="34.589774" lon="135.636936">
 <ele>155</ele>
 <time>2020-03-24T15:35:07Z</time>
</trkpt>
<trkpt lat="34.589774" lon="135.636872">
 <ele>154</ele>
 <time>2020-03-24T15:35:07Z</time>
</trkpt>
<trkpt lat="34.589749" lon="135.636829">
 <ele>152.1</ele>
 <time>2020-03-24T15:35:07Z</time>
</trkpt>
<trkpt lat="34.589689" lon="135.636807">
 <ele>149.3</ele>
 <time>2020-03-24T15:35:07Z</time>
</trkpt>
<trkpt lat="34.589603" lon="135.636765">
 <ele>147.3</ele>
 <time>2020-03-24T15:35:07Z</time>
</trkpt>
<trkpt lat="34.589457" lon="135.636689">
 <ele>142.4</ele>
 <time>2020-03-24T15:35:07Z</time>
</trkpt>
<trkpt lat="34.589414" lon="135.636561">
 <ele>140.7</ele>
 <time>2020-03-24T15:35:07Z</time>
</trkpt>
<trkpt lat="34.589371" lon="135.636453">
 <ele>136.4</ele>
 <time>2020-03-24T15:35:07Z</time>
</trkpt>
<trkpt lat="34.589294" lon="135.636314">
 <ele>135</ele>
 <time>2020-03-24T15:35:08Z</time>
</trkpt>
<trkpt lat="34.589242" lon="135.636164">
 <ele>134.9</ele>
 <time>2020-03-24T15:35:08Z</time>
</trkpt>
<trkpt lat="34.589234" lon="135.636067">
 <ele>130.6</ele>
 <time>2020-03-24T15:35:08Z</time>
</trkpt>
<trkpt lat="34.589156" lon="135.636121">
 <ele>128.8</ele>
 <time>2020-03-24T15:35:08Z</time>
</trkpt>
<trkpt lat="34.589088" lon="135.636121">
 <ele>125.8</ele>
 <time>2020-03-24T15:35:08Z</time>
</trkpt>
<trkpt lat="34.589028" lon="135.636067">
 <ele>124.1</ele>
 <time>2020-03-24T15:35:08Z</time>
</trkpt>
<trkpt lat="34.589019" lon="135.635981">
 <ele>121.7</ele>
 <time>2020-03-24T15:35:08Z</time>
</trkpt>
<trkpt lat="34.589002" lon="135.635906">
 <ele>120.4</ele>
 <time>2020-03-24T15:35:08Z</time>
</trkpt>
<trkpt lat="34.588950" lon="135.635831">
 <ele>116.8</ele>
 <time>2020-03-24T15:35:08Z</time>
</trkpt>
<trkpt lat="34.588882" lon="135.635724">
 <ele>114.9</ele>
 <time>2020-03-24T15:35:08Z</time>
</trkpt>
<trkpt lat="34.588830" lon="135.635638">
 <ele>110.2</ele>
 <time>2020-03-24T15:35:09Z</time>
</trkpt>
<trkpt lat="34.588762" lon="135.635735">
 <ele>109</ele>
 <time>2020-03-24T15:35:09Z</time>
</trkpt>
<trkpt lat="34.588710" lon="135.635735">
 <ele>107.3</ele>
 <time>2020-03-24T15:35:09Z</time>
</trkpt>
<trkpt lat="34.588659" lon="135.635692">
 <ele>104.1</ele>
 <time>2020-03-24T15:35:09Z</time>
</trkpt>
<trkpt lat="34.588659" lon="135.635617">
 <ele>103</ele>
 <time>2020-03-24T15:35:09Z</time>
</trkpt>
<trkpt lat="34.588676" lon="135.635509">
 <ele>100.8</ele>
 <time>2020-03-24T15:35:09Z</time>
</trkpt>
<trkpt lat="34.588701" lon="135.635456">
 <ele>98.6</ele>
 <time>2020-03-24T15:35:09Z</time>
</trkpt>
<trkpt lat="34.588727" lon="135.635413">
 <ele>96.7</ele>
 <time>2020-03-24T15:35:09Z</time>
</trkpt>
<trkpt lat="34.588650" lon="135.635370">
 <ele>96.1</ele>
 <time>2020-03-24T15:35:09Z</time>
</trkpt>
<trkpt lat="34.588641" lon="135.635284">
 <ele>92.9</ele>
 <time>2020-03-24T15:35:10Z</time>
</trkpt>
<trkpt lat="34.588847" lon="135.635187">
 <ele>84.7</ele>
 <time>2020-03-24T15:35:10Z</time>
</trkpt>
<trkpt lat="34.588959" lon="135.635123">
 <ele>83.9</ele>
 <time>2020-03-24T15:35:10Z</time>
</trkpt>
<trkpt lat="34.589002" lon="135.635005">
 <ele>79.9</ele>
 <time>2020-03-24T15:35:10Z</time>
</trkpt>
<trkpt lat="34.589019" lon="135.634941">
 <ele>78.4</ele>
 <time>2020-03-24T15:35:10Z</time>
</trkpt>
<trkpt lat="34.589010" lon="135.634876">
 <ele>75.7</ele>
 <time>2020-03-24T15:35:10Z</time>
</trkpt>
<trkpt lat="34.588950" lon="135.634790">
 <ele>70.7</ele>
 <time>2020-03-24T15:35:10Z</time>
</trkpt>
<trkpt lat="34.588865" lon="135.634769">
 <ele>69</ele>
 <time>2020-03-24T15:35:10Z</time>
</trkpt>
<trkpt lat="34.588804" lon="135.634737">
 <ele>66</ele>
 <time>2020-03-24T15:35:10Z</time>
</trkpt>
<trkpt lat="34.588762" lon="135.634683">
 <ele>64.3</ele>
 <time>2020-03-24T15:35:10Z</time>
</trkpt>
<trkpt lat="34.588770" lon="135.634630">
 <ele>62.2</ele>
 <time>2020-03-24T15:35:11Z</time>
</trkpt>
<trkpt lat="34.588796" lon="135.634597">
 <ele>62.9</ele>
 <time>2020-03-24T15:35:11Z</time>
</trkpt>
<trkpt lat="34.588882" lon="135.634479">
 <ele>60</ele>
 <time>2020-03-24T15:35:11Z</time>
</trkpt>
<trkpt lat="34.588959" lon="135.634404">
 <ele>56.5</ele>
 <time>2020-03-24T15:35:11Z</time>
</trkpt>
<trkpt lat="34.589148" lon="135.634329">
 <ele>54</ele>
 <time>2020-03-24T15:35:11Z</time>
</trkpt>
<trkpt lat="34.589371" lon="135.634243">
 <ele>49.5</ele>
 <time>2020-03-24T15:35:11Z</time>
</trkpt>
<trkpt lat="34.589483" lon="135.634136">
 <ele>46.3</ele>
 <time>2020-03-24T15:35:11Z</time>
</trkpt>
<trkpt lat="34.589646" lon="135.633964">
 <ele>41.2</ele>
 <time>2020-03-24T15:35:11Z</time>
</trkpt>
<trkpt lat="34.589706" lon="135.633803">
 <ele>36.3</ele>
 <time>2020-03-24T15:35:11Z</time>
</trkpt>
<trkpt lat="34.589697" lon="135.633675">
 <ele>32.2</ele>
 <time>2020-03-24T15:35:11Z</time>
</trkpt>
<trkpt lat="34.589723" lon="135.633567">
 <ele>30.3</ele>
 <time>2020-03-24T15:35:12Z</time>
</trkpt>
<trkpt lat="34.589706" lon="135.633385">
 <ele>26.9</ele>
 <time>2020-03-24T15:35:12Z</time>
</trkpt>
<trkpt lat="34.589680" lon="135.633052">
 <ele>23.1</ele>
 <time>2020-03-24T15:35:12Z</time>
</trkpt>
<trkpt lat="34.589646" lon="135.632462">
 <ele>19.3</ele>
 <time>2020-03-24T15:35:12Z</time>
</trkpt>
<trkpt lat="34.589646" lon="135.631379">
 <ele>17.4</ele>
 <time>2020-03-24T15:35:12Z</time>
</trkpt>
<trkpt lat="34.589628" lon="135.631271">
 <ele>17.3</ele>
 <time>2020-03-24T15:35:12Z</time>
</trkpt>
<trkpt lat="34.589259" lon="135.631250">
 <ele>17.1</ele>
 <time>2020-03-24T15:35:12Z</time>
</trkpt>
<trkpt lat="34.589010" lon="135.631186">
 <ele>16.9</ele>
 <time>2020-03-24T15:35:12Z</time>
</trkpt>
<trkpt lat="34.589010" lon="135.628782">
 <ele>16.1</ele>
 <time>2020-03-24T15:35:12Z</time>
</trkpt>
<trkpt lat="34.589028" lon="135.628611">
 <ele>15.9</ele>
 <time>2020-03-24T15:35:13Z</time>
</trkpt>
<trkpt lat="34.589105" lon="135.628063">
 <ele>16.1</ele>
 <time>2020-03-24T15:35:13Z</time>
</trkpt>
<trkpt lat="34.589208" lon="135.627152">
 <ele>16.5</ele>
 <time>2020-03-24T15:35:13Z</time>
</trkpt>
<trkpt lat="34.588993" lon="135.627119">
 <ele>16.5</ele>
 <time>2020-03-24T15:35:13Z</time>
</trkpt>
</trkseg>
</trk>
</gpx>

